This is the latest recevied weather packets stored in our database for station/object N9PBY-2. If no packets are shown the sender has not sent any weather packets the latest 10 day(s).
| Time | Temp. | Humidity | Pressure | Rain* | Wind** | Luminosity | Snow |
|---|---|---|---|---|---|---|---|
| 1777547407 | 0.56° C | 79% | 1016.1 hPa | 0 mm | - | - | - |
| 1777545606 | 0.56° C | 78% | 1016.1 hPa | 0 mm | - | - | - |
| 1777545007 | 0.56° C | 78% | 1016.1 hPa | 0 mm | - | - | - |
| 1777544407 | 0.56° C | 78% | 1016 hPa | 0 mm | - | - | - |
| 1777543807 | 0.56° C | 78% | 1015.9 hPa | 0 mm | - | - | - |
| 1777542006 | 1.11° C | 77% | 1015.9 hPa | 0 mm | - | - | - |
| 1777541406 | 1.11° C | 77% | 1016 hPa | 0.25 mm | - | - | - |
| 1777540807 | 1.11° C | 77% | 1016 hPa | 0.25 mm | - | - | - |
| 1777539607 | 1.11° C | 77% | 1016.1 hPa | 0.25 mm | - | - | - |
| 1777538407 | 1.11° C | 77% | 1016 hPa | 0.25 mm | - | - | - |
| 1777537207 | 1.67° C | 76% | 1016 hPa | 0 mm | - | - | - |
| 1777534807 | 1.67° C | 75% | 1016 hPa | 0 mm | - | - | - |
| 1777534207 | 1.67° C | 75% | 1015.9 hPa | 0 mm | - | - | - |
| 1777533607 | 2.22° C | 75% | 1016 hPa | 0 mm | - | - | - |
| 1777533006 | 2.22° C | 75% | 1016 hPa | 0 mm | - | - | - |
| 1777532406 | 2.22° C | 75% | 1016.2 hPa | 0 mm | - | - | - |
| 1777531807 | 2.22° C | 75% | 1016.3 hPa | 0 mm | - | - | - |
| 1777531206 | 2.78° C | 75% | 1016.3 hPa | 0 mm | - | - | - |
| 1777530607 | 2.78° C | 75% | 1016.4 hPa | 0 mm | - | - | - |
| 1777530006 | 3.33° C | 75% | 1016.4 hPa | 0 mm | - | - | - |
| 1777529406 | 3.33° C | 75% | 1016.2 hPa | 0 mm | - | - | - |
| 1777528806 | 3.33° C | 75% | 1016.3 hPa | 0 mm | - | - | - |
| 1777528207 | 3.89° C | 75% | 1016.4 hPa | 0 mm | - | - | - |
| 1777527607 | 3.89° C | 75% | 1016.5 hPa | 0 mm | - | - | - |
| 1777527007 | 3.89° C | 75% | 1016.5 hPa | 0 mm | - | - | - |
* Rain latest hour (hover to see other rain measurements)
** Current wind speed in m/s (hover to see current wind gust speed)